Regional Weather Roundup
Issued by NWS Wakefield, VA

Home | Current Version | Previous Version | Text Only | Print | Product List | Glossary On
Versions: 1 2 3 4 5 6 7 8 9 10 11 12 13 14 15 16 17 18 19 20 21 22 23 24 25 26 27 28 29 30 31 32 33 34 35 36 37 38 39 40 41 42 43 44 45 46 47 48 49 50
000
ASUS41 KAKQ 020815
RWRAKQ

REGIONAL WEATHER ROUNDUP
NATIONAL WEATHER SERVICE WAKEFIELD VA
400 AM EDT THU JUL 02 2015

Note: "fair" indicates few or no clouds below 12,000 feet with no
significant weather and/or obstructions to visibility. * = Denotes
station may not report precipitation (e.g., rain,snow,etc.),
thunder or fog.

VAZ042-051-052>054-056-020900-
NORTHERN VIRGINIA

CITY           SKY/WX    TMP DP  RH WIND       PRES   REMARKS
WASH NATIONAL  PTCLDY    74  70  87 CALM      29.88F
DULLES         CLOUDY    68  64  87 N3        29.88F
FORT BELVOIR   PTCLDY    68  66  94 CALM      29.87F FOG
QUANTICO       CLOUDY    72  68  87 NW5       29.88F
FREDERICKSBRG* NOT AVBL
STAFFORD*      NOT AVBL
WARRENTON      NOT AVBL
CULPEPER*      NOT AVBL
MANASSAS*      PTCLDY    68  68 100 CALM      29.88F
LEESBURG*      NOT AVBL
WINCHESTER     NOT AVBL
FRONT ROYAL*   NOT AVBL
LURAY*         NOT AVBL
$$

VAZ048-049-060>072-079>083-020900-
CENTRAL AND SOUTH CENTRAL VIRGINIA

CITY           SKY/WX    TMP DP  RH WIND       PRES   REMARKS
RICHMOND       MOCLDY    75  71  87 S3        29.86F
CHESTERFIELD*  NOT AVBL
PETERSBURG*    NOT AVBL
HANOVER        MOCLDY    73  70  90 NE3       29.88F FOG
TAPPAHANNOCK*  PTCLDY    72  68  87 CALM      29.88F
QUINTON*       NOT AVBL
CHARLOTTSVILLE PTCLDY    70  62  76 CALM      29.89F
GORDONSVILLE*  NOT AVBL
ORANGE*        NOT AVBL
LOUISA*        NOT AVBL
BUMPASS*       NOT AVBL
FARMVILLE*     NOT AVBL
CREWE*         NOT AVBL
FORT PICKETT*  NOT AVBL
CHASE CITY*    NOT AVBL
CLARKSVILLE*   NOT AVBL
SOUTH HILL*    NOT AVBL
LAWRENCEVILLE* NOT AVBL
EMPORIA*       NOT AVBL
$$

VAZ088>098-020900-
SOUTHEAST VIRGINIA

CITY           SKY/WX    TMP DP  RH WIND       PRES   REMARKS
NORFOLK        MOCLDY    76  69  79 SW8       29.89F
VIRGINIA BEACH CLOUDY    78  70  76 SW8       29.89F
NORFOLK NAVAL  MOCLDY    75  70  84 S6        29.90F
WEST POINT*    NOT AVBL
SALUDA*        NOT AVBL
NEWPORT NEWS   MOCLDY    76  71  85 SW6       29.88F
LANGLEY AFB    MOCLDY    77  71  83 S7        29.87F
FORT EUSTIS    MOCLDY    76  76 100 S5        29.86F
WILLIAMSBURG*  NOT AVBL
HR EXEC AP*    FAIR      72  66  83 CALM      29.91F
FRANKLIN*      CLOUDY    73  71  93 S5        29.90F
WAKEFIELD      CLOUDY    75  71  87 VRB5      29.88F
$$

VAZ020-022-025-037-045-020900-
WEST CENTRAL AND SOUTHWEST VIRGINIA

CITY           SKY/WX    TMP DP  RH WIND       PRES   REMARKS
STAUNTON*      NOT AVBL
WAYNESBORO*    NOT AVBL
HOT SPRINGS VA CLOUDY    64  64 100 W7        30.01F FOG
LYNCHBURG      CLOUDY    70  67  90 SW5       29.91F
DANVILLE       CLOUDY    71  68  90 SW3       29.91F
SOUTH BOSTON*  NOT AVBL
MARTINSVILLE   CLOUDY    68  68 100 CALM      29.95S FOG
ROANOKE        LGT RAIN  71  64  78 W12       29.94F
BLACKSBURG     CLOUDY    67  65  93 CALM      29.99F
DUBLIN*        CLOUDY    67  66  97 SW5       29.99F
MARION*        NOT AVBL
HILLSVILLE*    NOT AVBL
RICHLANDS*     NOT AVBL
WISE*          NOT AVBL
ABINGDON*      NOT AVBL
$$

MDZ021>025-VAZ099-100-020900-
SOUTHERN MARYLAND AND THE DELMARVA PENINSULA

CITY           SKY/WX    TMP DP  RH WIND       PRES   REMARKS
PATUXENT RIVER PTCLDY    73  69  87 SE5       29.87F
BAY BRIDGE APT   N/A     70  68  94 CALM      29.88S
LEONARDTOWN    PTCLDY    70  68  94 CALM      29.88F
DOVER          MOCLDY    68  68 100 E3        29.86S
GEORGETOWN     CLEAR     68  66  93 SW3       29.88F
EASTON         MOCLDY    70  70 100 CALM      29.92S FOG
CAMBRIDGE      PTCLDY    70  64  83 CALM      29.87F
SALISBURY      CLEAR     68  67  96 CALM      29.88F
OCEAN CITY     CLEAR     68  66  93 CALM      29.88  FOG
WALLOPS ISLAND CLEAR     72  71  97 CALM      29.88F
ACCOMACK*      NOT AVBL
$$

NCZ012>017-030>032-020900-
NORTH CENTRAL AND EASTERN NORTH CAROLINA

CITY           SKY/WX    TMP DP  RH WIND       PRES   REMARKS
ROANOKE RAPIDS NOT AVBL
RALEIGH        CLOUDY    76  70  82 SW7       29.91F
ELIZABETH CITY CLOUDY    76  72  87 S7        29.90F
AHOSKIE*       CLOUDY    72  70  95 S3        29.90F FOG
EDENTON*       NOT AVBL
CURRITUCK*     NOT AVBL
KILL DEVIL HLS NOT AVBL
MANTEO         NOT AVBL
CAPE HATTERAS  CLEAR     78  75  90 SW7       29.95S
TARBORO*       NOT AVBL
GOLDSBORO      CLOUDY    76  72  87 S5        29.89F
WASHINGTON     NOT AVBL
GREENVILLE     CLOUDY    77  72  83 SW7       29.93F
NEW BERN       PTCLDY    74  71  91 SW6       29.94F
WILMINGTON     CLEAR     78  72  81 SW8       29.94F
$$

VAZ048-020900-
ELSEWHERE

CITY           SKY/WX    TMP DP  RH WIND       PRES   REMARKS
HARRISBURG PA  PTCLDY    65  61  87 CALM      29.89S
BALTIMORE      MOCLDY    66  64  93 CALM      29.88F
ANNAPOLIS      CLEAR     72  69  90 CALM      29.87F FOG
ANDREWS AFB    PTCLDY    67  67  99 CALM      29.88S
PHILADELPHIA   CLEAR     71  60  68 CALM      29.88F
GREENSBORO     CLOUDY    72  68  87 SW3       29.92F FOG
ROCKY MOUNT    CLOUDY    76  71  85 S7        29.90F
$$

VAZ100-020900-
MARINE

STATION/POSITION TIME  TEMP    WIND        PRES    WAVE   SWELL
                       AIR SEA DIR/SP/G            HT/PER HT/PER
                 (UTC) (F)     (DEG/KT/KT) (MB)    (FT/S) (FT/S)
BRANDYWINE LGT   0700   74 74  270/  5/  5 1012.0F
CAPE MAY NJ      0700   75 78  280/  4/  4 1011.4F
LEWES DE         0700   74 72  310/  3/  4 1011.7F
15NM E FENWICK I 0750   74 73              1011.7F   3/ 8
OCEAN-CITY-INLET 0700   72 72  150/  1/  2 1011.9F
WACHAPREAGUE VA  0700   77 82  240/  5/  7 1012.3F
GOOSES REEF MD   0800   76 78  110/  2/  4 1012.4F
COVE POINT MD    0700   74      CALM  /  1 1012.6F
SOLOMONS ISLAND  0700      80                N/A
BISHOPS HEAD MD  0700   75      60/  5/  6 1011.8F
PINEY POINT MD   0700           90/  3/  4   N/A
CAMBRIDGE MD     0700   71 80  190/  4/  5 1011.7F
LEWISETTA VA     0700   77 80  220/  2/  3 1011.5F
RAPPAHANNOCK LGT 0700          210/ 13/ 13 1012.4F
STINGRAY PT      0800   79 80  220/ 14/ 16 1011.4F   1
YORK RVR RNG VA  0700   79     240/ 12/ 14 1011.5F
YORKTOWN VA      0700   78 80  220/  9/ 13 1011.8F
JAMESTOWN VA     0800   77 83  200/  6/  8   N/A
DOMINION TERM VA 0700   78     240/ 12/ 13 1012.1F
KIPTOPEKE VA     0700      83  240/ 11/ 14   N/A
CHES BAY BRIDGE  0700   78 77  220/ 10/ 12 1011.9F
CAPE HENRY VA    0700   78     220/  7/  9 1010.8F
CHESAPEAKE LGHT  0700   77     240/ 10/ 11 1013.3S
WILLOUBY STN VA  0700   78     250/  4/  7 1013.3F
CAPE HENRY BUOY  0728      78                N/A     3/ 8
1ST LANDING BUOY 0800      76              1011.8F   1/ 4
CAPE CHARLES BUO 0726      75                N/A     3/ 8
OFFSHORE WE BUOY 0711      78                N/A     4/ 8   3/ 8
64NM E OF VA BCH 0750   78 77  230/  8/ 10 1012.5F   5/ 8   5/ 8
DUCK PIER NC     0700   79 62  240/ 12/ 14 1012.3F
44100 DUCK FRF   0724      77                N/A     3/ 8
44056 DUCK FRF   0711      68                N/A     2/ 8
OREGON INLET NC  0700   78 80  240/ 14/ 15 1013.5F
HATTERAS NC      0700   76 80  220/  5/  7 1013.9F
DIAMOND SHLS NC  0750   80 82  230/ 14/ 16 1013.8F   5/ 6   3/12
CAPE LOOKOUT NC  0800   79     230/ 10/ 13 1013.8F
$$


USA.gov is the U.S. government's official web portal to all federal, state and local government web resources and services.